User: anonymous   Login
Location: Unspecified
(0.0000°N, 0.0000°E)
Time: 22:03:00
(UTC+00:00)
Language:

BIROS - Orbit

View from above orbital plane
View from above orbital plane
View from above satellite
View from above satellite

Ground track
Ground track

The orbit data is extracted from the following two-line orbital elements,

1 41604U 16040F   18343.75920825  .00000450  00000-0  23000-4 0  9991
2 41604  97.3923  43.7732 0011822 342.9622  17.1215 15.21543360136869
Epoch (UTC): 09 December 2018 18:13:15
Eccentricity: 0.0011822
inclination: 97.3923°
perigee height: 493 km
apogee height: 509 km
right ascension of ascending node: 43.7732°
argument of perigee: 342.9622°
revolutions per day: 15.21543360
mean anomaly at epoch: 17.1215°
orbit number at epoch: 13686

The dashed part of the orbit path shows where the satellite is in the earth's shadow,  

DLR